Temp
13 13 13 13 13 13 13 13 13 14 14 15 15 14 15 16 16 15 15 15 15 16
14 14 14 13 13 13 13 13 14 14 14 15 15 15 16 15 15 15 16 15 16 15
14 13 14 14 14 13 13 13 13 14 15 15 15 15 15 16 16 15 15 16 15 15
14 13 14 14 14 15 14 14 14 14 14 14 15 16 16 15 15 15 16 15 15 15
14 14 14 14 15 15 15 15 15 15 16 15 15 16 15 15 15 15 15 15 15 15
15 15 15 15 15 16 16 16 16 16 16 16 16 15 15 15 15 15 16 16 16 15
16 15 15 16 16 17 17 16 16 16 16 16 16 16 16 16 16 16 16 15 15 13
17 17 16 16 16 16 16 16 16 17 17 16 16 16 16 16 16 16 15 12 10 6
18 17 17 17 17 16 16 16 16 16 16 17 13 13 15 15 14 12 10 7 4 2
18 18 17 17 17 17 16 16 16 14 13 11 9 9 10 12 10 7 4 2 1 0
19 18 18 17 17 16 14 12 10 8 7 6 4 5 6 7 4 2 0 -0 -0 -1
19 19 18 13 9 8 9 6 5 4 3 2 0 2 3 4 1 -1 -2 -2 -2 -2
18 12 8 7 6 4 3 0 -0 -1 -1 -1 -1 -0 1 1 -1 -2 -3 -4 -4 -3
7 7 5 3 2 1 -1 -1 -2 -3 -3 -2 -2 -2 -1 -1 -2 -3 -4 -5 -5 -5
Height
741 747 752 757 763 768 773 777 782 788 793 798 802 807 809 809 811 814 817 819 821 821
739 745 749 755 761 766 771 774 779 784 790 794 798 803 802 804 807 809 812 813 814 816
735 740 745 751 756 762 766 771 776 781 786 790 794 796 797 799 803 804 805 807 809 809
732 737 741 746 751 756 761 766 771 775 780 784 787 790 793 795 797 799 799 801 801 801
728 733 737 741 745 750 754 759 764 770 773 777 780 784 787 789 790 792 793 793 795 793
722 727 733 737 741 744 748 752 756 761 766 769 773 777 779 781 783 785 785 786 787 787
713 719 724 731 736 740 745 749 752 756 760 764 767 770 772 774 776 777 778 780 780 779
707 712 718 724 728 733 737 742 748 752 756 759 762 764 764 767 770 770 770 771 772 773
702 707 710 716 722 728 733 737 742 746 750 751 752 753 756 759 762 763 765 767 771 774
695 701 707 713 718 722 726 732 735 736 740 743 747 749 751 754 757 759 763 767 771 772
690 696 702 708 715 717 718 722 728 734 739 743 747 750 750 751 754 758 763 768 772 775
683 692 700 704 706 712 716 724 729 735 740 744 750 752 751 751 754 760 767 771 774 777
674 681 690 698 706 714 720 727 734 740 745 747 750 754 755 757 760 765 770 774 777 778
669 674 687 701 709 713 720 729 737 742 749 751 755 759 762 765 767 771 775 780 781 782
Wind_Speed
30 28 29 32 32 29 31 31 33 34 34 29 29 27 29 22 22 23 24 28 26 25
28 29 28 33 31 30 28 29 32 34 36 33 28 33 25 23 26 27 29 28 28 28
28 26 28 31 32 31 31 30 31 37 41 41 34 28 28 29 30 30 31 30 29 29
27 30 29 28 32 33 35 34 34 37 39 38 38 35 34 32 31 31 31 31 30 31
30 30 32 31 31 35 34 38 40 38 36 38 36 35 33 33 28 30 30 30 31 34
31 32 31 31 34 35 36 35 35 37 35 33 33 31 31 31 31 32 32 32 32 34
32 33 34 31 30 31 28 28 31 31 32 31 28 29 30 31 32 33 33 31 29 23
33 32 32 33 34 32 31 31 30 29 30 29 29 29 31 29 28 25 20 12 8 2
30 31 31 31 32 32 31 30 29 28 29 26 22 20 23 21 18 12 6 8 9 9
29 29 29 27 28 29 29 27 27 20 18 14 11 4 8 13 8 9 13 14 14 17
26 27 26 26 24 21 24 23 20 16 15 17 15 12 11 14 18 21 21 20 20 20
27 25 25 20 24 24 27 24 23 21 21 22 21 17 18 20 26 28 27 24 22 21
26 28 29 29 29 28 29 30 28 29 26 26 26 22 23 26 29 31 28 24 22 20
30 36 35 32 31 34 37 37 35 36 33 33 29 26 26 25 26 26 23 20 19 19
Wind_Direction
172 171 174 176 178 182 187 189 193 197 205 216 219 221 215 214 219 222 229 237 239 243
173 183 179 181 184 189 188 190 193 197 209 213 225 229 224 221 226 228 237 245 248 242
182 180 181 184 188 191 194 193 200 209 215 220 217 226 227 230 233 234 243 247 245 242
189 191 187 187 197 203 204 202 203 212 215 219 229 236 232 235 238 241 242 239 240 246
194 194 198 203 202 203 203 206 210 213 214 216 222 229 233 233 233 236 238 243 246 248
194 192 200 205 202 210 205 204 207 212 219 221 222 225 230 236 239 241 244 248 251 257
191 195 198 201 203 209 205 205 205 208 214 220 223 229 233 238 242 247 250 254 255 252
194 195 195 200 204 206 205 212 216 220 225 228 230 234 236 239 245 249 247 233 226 183
195 196 198 198 200 204 208 209 209 214 219 222 219 226 231 235 235 232 184 136 107 94
194 195 197 200 199 200 202 203 205 184 186 172 180 192 221 230 184 133 118 111 101 86
195 193 194 194 196 188 183 170 156 141 135 128 110 114 127 133 122 109 101 97 94 92
190 187 190 162 146 147 145 135 129 128 125 121 112 115 117 118 113 107 102 97 92 88
173 152 138 145 142 135 129 117 114 107 107 106 103 105 108 111 112 106 102 95 88 80
131 139 139 131 130 127 117 111 103 97 94 94 97 99 104 105 103 103 96 86 76 72